This is the latest recevied weather packets stored in our database for station/object KO4LCK. If no packets are shown the sender has not sent any weather packets the latest 10 day(s).
| Time | Temp. | Humidity | Pressure | Rain* | Wind** | Luminosity | Snow |
|---|---|---|---|---|---|---|---|
| 1777852067 | 17.78° C | 48% | 1017.9 hPa | 0 mm | - | 20 W/m² | - |
| 1777851765 | 18.33° C | 48% | 1017.7 hPa | 0 mm | - | 22 W/m² | - |
| 1777851461 | 18.33° C | 47% | 1018.1 hPa | 0 mm | - | 24 W/m² | - |
| 1777851157 | 18.89° C | 45% | 1017.9 hPa | 0 mm | - | 26 W/m² | - |
| 1777850854 | 18.89° C | 44% | 1017.9 hPa | 0 mm | - | 28 W/m² | - |
| 1777850552 | 18.89° C | 43% | 1017.9 hPa | 0 mm | - | 29 W/m² | - |
| 1777850250 | 19.44° C | 43% | 1017.9 hPa | 0 mm | - | 30 W/m² | - |
| 1777849946 | 19.44° C | 44% | 1017.8 hPa | 0 mm | - | 31 W/m² | - |
| 1777849642 | 20° C | 42% | 1017.9 hPa | 0 mm | - | 33 W/m² | - |
| 1777849340 | 20.56° C | 41% | 1017.9 hPa | 0 mm | - | 35 W/m² | - |
| 1777849037 | 21.11° C | 36% | 1017.7 hPa | 0 mm | - | 37 W/m² | - |
| 1777848737 | 21.67° C | 35% | 1017.8 hPa | 0 mm | - | 43 W/m² | - |
| 1777848435 | 21.67° C | 35% | 1017.9 hPa | 0 mm | - | 148 W/m² | - |
| 1777848133 | 22.22° C | 36% | 1018 hPa | 0 mm | - | 166 W/m² | - |
| 1777847830 | 22.78° C | 37% | 1018 hPa | 0 mm | - | 181 W/m² | - |
| 1777847527 | 22.78° C | 35% | 1018.1 hPa | 0 mm | - | 195 W/m² | - |
| 1777847223 | 23.89° C | 34% | 1017.8 hPa | 0 mm | - | 213 W/m² | - |
| 1777846921 | 23.89° C | 32% | 1018.1 hPa | 0 mm | - | 230 W/m² | - |
| 1777846620 | 23.33° C | 34% | 1018.1 hPa | 0 mm | - | 248 W/m² | - |
| 1777846316 | 23.33° C | 36% | 1018.2 hPa | 0 mm | - | 264 W/m² | - |
| 1777846013 | 22.78° C | 37% | 1018.2 hPa | 0 mm | - | 280 W/m² | - |
| 1777845710 | 22.78° C | 36% | 1018.3 hPa | 0 mm | - | 298 W/m² | - |
| 1777845407 | 22.22° C | 37% | 1018.1 hPa | 0 mm | - | 318 W/m² | - |
| 1777845103 | 22.78° C | 36% | 1018.2 hPa | 0 mm | - | 335 W/m² | - |
| 1777844802 | 22.78° C | 37% | 1018.3 hPa | 0 mm | - | 352 W/m² | - |
* Rain latest hour (hover to see other rain measurements)
** Current wind speed in m/s (hover to see current wind gust speed)